{"data":{"norad_id":53450,"intl_designator":"2022-098G","name":"DONGPO 03","alt_names":[],"object_type":"PAYLOAD","status":"ACTIVE","operator":null,"country":"PRC","launch_date":"2022-08-10","launch_site_code":"TAISC","launch_vehicle":null,"mission":null,"orbit_class":"UNKNOWN","rcs_meters":null,"size_class":null,"mass_kg":null,"dimensions":null,"purposes":[],"wikipedia_slug":null,"has_3d_model":false,"image_url":null,"decayed_at":null,"tle_current":{"epoch":"2026-05-25T05:24:48.427200Z","epoch_age_seconds":52085,"freshness":"FRESH","line1":"1 53450U 22098G   26145.22556050  .00447868  87990-4  90222-3 0  9993","line2":"2 53450  97.5525 280.9792 0004992 248.8986 111.1758 15.99652208211520","mean_motion":15.99652208,"eccentricity":0.0004992,"inclination_deg":97.5525,"raan_deg":280.9792,"arg_perigee_deg":248.8986,"mean_anomaly_deg":111.1758,"bstar":0.00090222,"rev_number":21152,"period_min":90.019567553399,"perigee_km":272.06148286762,"apogee_km":278.70435715575,"semimajor_km":6653.5199200117,"source":"CELESTRAK","updated_at":"2026-05-25T13:37:58.192658Z"}}}